[[{"header":{"parameterUnit":"m.s-1","parameterCategory":1,"la1":30.2991,"la2":30.254,"lo1":-89.0895,"lo2":-89.0444,"dy":0.0017,"dx":0.0017,"nx":28,"ny":28,"refTime":"2024-08-25T21:00:00:Z","depth":0,"parameterNumber":2,"parameterNumberName":"U-component_of_WINDS"},"data":[0,0,0,0,0,0,0,0,0,0,0,0,0,0,0,0,0,0,0,0,0,0,0,0,0,0,0,0,0,0,0,0,0,0,0,0,0,0,0,0,0,0,0,0,0,0,0,0,0,0,0,0,0,0,0,0,0,0,-0.8665,-0.8665,0,-0.8664,-0.8664,-0.8664,-0.8595,-0.8593,-0.8592,-0.859,-0.8591,-0.8593,-0.8595,0,0,0,0,0,0,0,0,0,0,0,0,0,-0.8611,-0.8612,-0.8665,-0.8665,-0.8665,-0.8664,-0.8664,-0.8664,-0.8596,-0.8593,-0.8591,-0.8589,-0.8591,-0.8593,-0.8595,0,0,0,0,0,0,0,0,0,0,0,0,0,-0.8625,-0.8613,-0.8665,-0.8631,-0.8628,-0.8664,-0.8664,-0.8664,-0.8596,-0.8593,-0.8591,-0.8588,-0.859,-0.8593,-0.8595,-0.8665,0,0,-0.8603,-0.8604,0,0,0,0,0,0,0,0,-0.8624,-0.8627,-0.8636,-0.8633,-0.863,-0.8627,-0.8645,-0.8664,-0.8597,-0.8608,-0.859,-0.8587,-0.8605,-0.8607,-0.8612,-0.8665,-0.8665,-0.8603,-0.8605,-0.8606,-0.8606,0,0,0,0,0,0,0,-0.8623,-0.8626,-0.8665,-0.8636,-0.8633,-0.8616,-0.8615,-0.8648,-0.8622,-0.8607,-0.8602,-0.8603,-0.8603,-0.861,-0.8612,-0.8665,-0.8603,-0.8605,-0.8607,-0.8608,-0.8774,-0.8777,0,0,0,0,0,0,-0.8626,-0.8626,-0.8665,-0.8665,-0.862,-0.8619,-0.8618,-0.8631,-0.8621,-0.8617,-0.8605,-0.8599,-0.8607,-0.8609,-0.8612,-0.8693,-0.8606,-0.8608,-0.861,-0.8771,-0.8774,-0.8778,0,0,0,0,0,0,-0.8625,-0.8631,-0.8665,-0.8644,-0.8647,-0.8623,-0.8638,-0.8632,-0.8639,-0.862,-0.8615,-0.8617,-0.8605,-0.8608,-0.8652,-0.8692,-0.8609,-0.8612,-0.8768,-0.8772,-0.8776,-0.8856,0,0,0,0,0,0,-0.8624,-0.8631,-0.8657,-0.8645,-0.8648,-0.8705,-0.864,-0.8634,-0.8643,-0.8636,-0.8629,-0.8626,-0.8603,-0.8648,-0.8654,-0.8694,-0.8614,-0.8764,-0.877,-0.8775,-0.885,-0.8863,-0.8874,0,0,0,0,0,-0.8622,-0.868,-0.8658,-0.8663,-0.868,-0.8707,-0.8709,-0.8681,-0.8646,-0.8673,-0.866,-0.8626,-0.8686,-0.8653,-0.8659,-0.8701,-0.8761,-0.8768,-0.8774,-0.8844,-0.886,-0.8873,0,0,0,0,0,0,-0.8698,-0.8678,-0.8654,-0.8709,-0.871,-0.8696,-0.8728,-0.8699,-0.8711,-0.8704,-0.8669,-0.8668,-0.8717,-0.8713,-0.8677,-0.8767,-0.8718,-0.8726,-0.8769,-0.8784,-0.8795,-0.8796,-0.8616,0,0,0,0,0,-0.8721,-0.8744,-0.8725,-0.8775,-0.8777,-0.8753,-0.8763,-0.8741,-0.8742,-0.8742,-0.8733,-0.8736,-0.8755,-0.8769,-0.8785,-0.8848,-0.8846,-0.8879,-0.8891,-0.8901,-0.8909,-0.8942,-0.8957,-0.8799,-0.8799,-0.8799,0,0,-0.8769,-0.8761,-0.8778,-0.879,-0.8789,-0.8814,-0.8754,-0.8783,-0.8802,-0.8747,-0.8788,-0.8781,-0.8781,-0.8835,-0.8858,-0.8833,-0.8952,-0.8909,-0.8917,-0.892,-0.895,-0.8965,-0.8979,-0.8803,-0.8802,-0.8802,0,0,-0.887,-0.8865,-0.8907,-0.8906,-0.8904,-0.8887,-0.8897,-0.8886,-0.888,-0.892,-0.8879,-0.8901,-0.8935,-0.8937,-0.8942,-0.9042,-0.9011,-0.9048,-0.9111,-0.9144,-0.9156,-0.9167,-0.9204,-0.9217,-0.9055,-0.9056,-0.9056,0,-0.8931,-0.8966,-0.8932,-0.8964,-0.8971,-0.8921,-0.8963,-0.8964,-0.8969,-0.8975,-0.8946,-0.8987,-0.8984,-0.9037,-0.9061,-0.9067,-0.9078,-0.905,-0.9157,-0.9168,-0.9177,-0.9212,-0.9226,-0.906,-0.906,-0.9059,-0.9059,0,-0.9041,-0.9066,-0.91,-0.9104,-0.9115,-0.9152,-0.9124,-0.9139,-0.9115,-0.9102,-0.9143,-0.9137,-0.9151,-0.9162,-0.9139,-0.9212,-0.9197,-0.9163,-0.9113,-0.9198,-0.923,-0.9243,-0.9067,-0.9065,-0.9064,-0.9063,0,0,-0.9192,-0.9175,-0.9189,-0.919,-0.9183,-0.9202,-0.9236,-0.925,-0.9264,-0.9267,-0.9296,-0.9325,-0.9293,-0.93,-0.9277,-0.9305,-0.9386,-0.9268,-0.9267,-0.9291,-0.9467,-0.9494,-0.951,-0.9364,-0.9366,-0.9368,-0.9467,0,-0.9291,-0.9349,-0.9318,-0.938,-0.9404,-0.9355,-0.9385,-0.9385,-0.9372,-0.939,-0.9376,-0.9398,-0.9354,-0.9357,-0.9383,-0.9371,-0.9421,-0.9363,-0.9392,-0.9394,-0.9396,-0.9526,-0.9555,-0.9649,-0.9479,-0.9481,-0.9483,0,-0.9414,-0.9422,-0.9487,-0.9475,-0.9483,-0.9511,-0.952,-0.9538,-0.9536,-0.9525,-0.9531,-0.9501,-0.9534,-0.9483,-0.9529,-0.949,-0.95,-0.9495,-0.9498,-0.9502,-0.9445,-0.9535,-0.9678,-0.9693,-0.9502,-0.95,-0.9499,0,-0.952,-0.9547,-0.9588,-0.9591,-0.9577,-0.9598,-0.9594,-0.9589,-0.9598,-0.9606,-0.9612,-0.9625,-0.9632,-0.9642,-0.9616,-0.9581,-0.9667,-0.9613,-0.966,-0.966,-0.9682,-0.9681,-0.983,-0.9685,-0.9685,-0.9684,-0.9684,0,-0.9635,-0.9677,-0.9636,-0.9662,-0.9707,-0.9671,-0.9717,-0.9707,-0.9703,-0.9727,-0.9685,-0.9708,-0.9672,-0.9692,-0.9671,-0.9713,-0.9717,-0.9709,-0.9704,-0.9714,-0.9716,-0.9722,-0.9716,-0.9688,-0.9687,-0.9687,-0.9686,0,-0.9762,-0.9736,-0.9779,-0.9762,-0.9758,-0.9793,-0.9778,-0.9802,-0.9785,-0.9816,-0.9821,-0.9796,-0.9817,-0.9791,-0.981,-0.9797,-0.9854,-0.9838,-0.9855,-0.9851,-0.99,-0.9897,-1.006,-1.008,-0.992,-0.9922,-0.9923,0,-0.9838,-0.9869,-0.9855,-0.9867,-0.9865,-0.9885,-0.9894,-0.986,-0.9871,-0.987,-0.9894,-0.9911,-0.9924,-0.9959,-0.9943,-0.9958,-0.9943,-0.9999,-0.9945,-0.9954,-0.9946,-0.9945,-0.9948,-1.0011,-1.0013,-1.0014,-1.0016,0,-0.9976,-0.9961,-0.9976,-0.9986,-0.9997,-1.0004,-1.0007,-1.0019,-0.9983,-0.9998,-1.0019,-1.0028,-1.0046,-1.0064,-1.0074,-1.007,-1.0038,-1.0032,-1.0044,-1.0056,-1.0066,-1.0063,-0.9887,-1.0029,-1.0028,-1.0027,-1.0026,-1.0026,-1.0081,-1.0106,-1.01,-1.0117,-1.0116,-1.0119,-1.0141,-1.0126,-1.0142,-1.0154,-1.0132,-1.0158,-1.0155,-1.0164,-1.0163,-1.0184,-1.016,-1.0177,-1.0181,-1.0186,-1.0195,-1.006,-1.0185,-1.0184,-1.0184,-1.0184,-1.0183,0,-1.0219,-1.0212,-1.0228,-1.0233,-1.0247,-1.0212,-1.0214,-1.0228,-1.0251,-1.025,-1.0262,-1.0285,-1.0302,-1.0286,-1.03,-1.0319,-1.0305,-1.0324,-1.0324,-1.0324,-1.0215,-1.0204,-1.0336,-1.0336,-1.0336,-1.0336,-1.0336,-1.0336,-1.0292,-1.0333,-1.0317,-1.0356,-1.0349,-1.0373,-1.0377,-1.0381,-1.0379,-1.0407,-1.042,-1.0409,-1.0402,-1.0415,-1.0429,-1.0424,-1.0432,-1.0457,-1.0447,-1.0346,-1.0331,-1.0317,-1.0307,-1.0459,-1.0459,-1.0555,-1.0556,-1.0556]},{"header":{"parameterUnit":"m.s-1","parameterCategory":1,"la1":30.2991,"la2":30.254,"lo1":-89.0895,"lo2":-89.0444,"dy":0.0017,"dx":0.0017,"nx":28,"ny":28,"refTime":"2024-08-25T21:00:00:Z","depth":0,"parameterNumber":3,"parameterNumberName":"V-component_of_WINDS"},"data":[0,0,0,0,0,0,0,0,0,0,0,0,0,0,0,0,0,0,0,0,0,0,0,0,0,0,0,0,0,0,0,0,0,0,0,0,0,0,0,0,0,0,0,0,0,0,0,0,0,0,0,0,0,0,0,0,0,0,-3.7714,-3.7715,0,-3.7822,-3.7823,-3.7825,-3.7797,-3.7795,-3.7793,-3.7791,-3.7898,-3.7902,-3.7907,0,0,0,0,0,0,0,0,0,0,0,0,0,-3.7479,-3.7484,-3.7714,-3.7715,-3.7717,-3.7822,-3.7823,-3.7825,-3.7797,-3.7795,-3.7792,-3.779,-3.7896,-3.7902,-3.7908,0,0,0,0,0,0,0,0,0,0,0,0,0,-3.7584,-3.7485,-3.7714,-3.7715,-3.7717,-3.7822,-3.7824,-3.7825,-3.7798,-3.7795,-3.7791,-3.7788,-3.7894,-3.7901,-3.7908,-3.8017,0,0,-3.793,-3.7934,0,0,0,0,0,0,0,0,-3.7578,-3.7592,-3.7714,-3.7716,-3.7717,-3.7793,-3.778,-3.7889,-3.7799,-3.7767,-3.7791,-3.7787,-3.7865,-3.7874,-3.7902,-3.8022,-3.8026,-3.7931,-3.7935,-3.7939,-3.7941,0,0,0,0,0,0,0,-3.7571,-3.7588,-3.7756,-3.7716,-3.7718,-3.771,-3.7721,-3.7801,-3.7832,-3.7769,-3.7768,-3.7781,-3.7865,-3.7895,-3.7904,-3.8028,-3.7931,-3.7937,-3.7942,-3.7945,-3.8242,-3.8246,0,0,0,0,0,0,-3.7563,-3.7582,-3.7753,-3.776,-3.7638,-3.7717,-3.7729,-3.7772,-3.7831,-3.7838,-3.7784,-3.7779,-3.7884,-3.7896,-3.7908,-3.8038,-3.7939,-3.7945,-3.7949,-3.8239,-3.8243,-3.8247,0,0,0,0,0,0,-3.7558,-3.7578,-3.7749,-3.767,-3.7692,-3.7724,-3.7772,-3.7775,-3.7805,-3.7842,-3.7847,-3.7808,-3.7882,-3.7897,-3.799,-3.8042,-3.7949,-3.7955,-3.8235,-3.824,-3.8245,-3.8301,0,0,0,0,0,0,-3.7551,-3.7577,-3.7619,-3.7672,-3.7696,-3.7831,-3.7775,-3.778,-3.7818,-3.7813,-3.7867,-3.7872,-3.7881,-3.798,-3.7997,-3.805,-3.7961,-3.823,-3.8237,-3.8243,-3.8295,-3.8308,-3.8319,0,0,0,0,0,-3.7543,-3.7629,-3.7621,-3.7642,-3.775,-3.7834,-3.7847,-3.7856,-3.7822,-3.7865,-3.7889,-3.7871,-3.8034,-3.7989,-3.8009,-3.8065,-3.8227,-3.8235,-3.8243,-3.8289,-3.8305,-3.8318,0,0,0,0,0,0,-3.758,-3.7636,-3.7628,-3.7734,-3.778,-3.7829,-3.7882,-3.7873,-3.7927,-3.7921,-3.7928,-3.794,-3.8035,-3.8059,-3.8009,-3.8173,-3.8125,-3.8137,-3.8154,-3.8169,-3.8181,-3.8172,-3.7967,0,0,0,0,0,-3.7601,-3.7666,-3.7711,-3.7801,-3.7824,-3.785,-3.7886,-3.7889,-3.7936,-3.7955,-3.7985,-3.803,-3.8092,-3.8132,-3.819,-3.8298,-3.8309,-3.8346,-3.8358,-3.8368,-3.8378,-3.8437,-3.8454,-3.8273,-3.8273,-3.8273,0,0,-3.7645,-3.7683,-3.7723,-3.7809,-3.7845,-3.791,-3.7866,-3.7937,-3.7986,-3.7965,-3.8055,-3.8079,-3.813,-3.8231,-3.8277,-3.8254,-3.8431,-3.8378,-3.8386,-3.8391,-3.8447,-3.8464,-3.8479,-3.8279,-3.8278,-3.8277,0,0,-3.7757,-3.7793,-3.7872,-3.7909,-3.7964,-3.798,-3.7999,-3.8051,-3.8066,-3.8157,-3.8143,-3.82,-3.8306,-3.8342,-3.8375,-3.8502,-3.8488,-3.8521,-3.8583,-3.8641,-3.8655,-3.8668,-3.8713,-3.8729,-3.8531,-3.8532,-3.8532,0,-3.7804,-3.7904,-3.7913,-3.7987,-3.8024,-3.8011,-3.809,-3.8124,-3.8195,-3.8221,-3.8195,-3.8327,-3.836,-3.847,-3.8501,-3.8528,-3.8549,-3.8515,-3.8652,-3.8665,-3.8677,-3.872,-3.8737,-3.8535,-3.8535,-3.8534,-3.8534,0,-3.7958,-3.8027,-3.8084,-3.8154,-3.8199,-3.8274,-3.8294,-3.8338,-3.8338,-3.8357,-3.8449,-3.8488,-3.8554,-3.8581,-3.858,-3.869,-3.8674,-3.865,-3.8602,-3.8698,-3.8738,-3.8755,-3.854,-3.8539,-3.8538,-3.8537,0,0,-3.8096,-3.8172,-3.8192,-3.8224,-3.8284,-3.8337,-3.8412,-3.8478,-3.8515,-3.8565,-3.8627,-3.8717,-3.8696,-3.8733,-3.8736,-3.8787,-3.8885,-3.8756,-3.8758,-3.8778,-3.9008,-3.9025,-3.9044,-3.8876,-3.8879,-3.8882,-3.9004,0,-3.8213,-3.8347,-3.8358,-3.8477,-3.8541,-3.853,-3.8595,-3.8638,-3.8658,-3.8715,-3.8736,-3.88,-3.8767,-3.8789,-3.8838,-3.8863,-3.8931,-3.8854,-3.8933,-3.8936,-3.892,-3.9066,-3.9084,-3.9197,-3.902,-3.9022,-3.9024,0,-3.8368,-3.8424,-3.855,-3.8601,-3.8629,-3.8687,-3.8749,-3.8803,-3.8852,-3.8863,-3.8905,-3.8902,-3.8978,-3.8928,-3.9033,-3.898,-3.9013,-3.903,-3.9035,-3.9042,-3.8985,-3.9076,-3.9233,-3.925,-3.9049,-3.9047,-3.9046,0,-3.8455,-3.8562,-3.8651,-3.8679,-3.8741,-3.8783,-3.881,-3.8856,-3.8895,-3.8949,-3.8974,-3.9036,-3.9069,-3.9116,-3.913,-3.9092,-3.9234,-3.9185,-3.9244,-3.9244,-3.9274,-3.9271,-3.9438,-3.9296,-3.9296,-3.9296,-3.9295,0,-3.8585,-3.8662,-3.8691,-3.8746,-3.8833,-3.8845,-3.8929,-3.8954,-3.8996,-3.9054,-3.9048,-3.9103,-3.9117,-3.9175,-3.9186,-3.9271,-3.9286,-3.9296,-3.9298,-3.9296,-3.9295,-3.9317,-3.931,-3.93,-3.9299,-3.9298,-3.9298,0,-3.8697,-3.8719,-3.8816,-3.8868,-3.8883,-3.8944,-3.8988,-3.904,-3.9059,-3.9134,-3.9152,-3.9182,-3.925,-3.9268,-3.9349,-3.9356,-3.9456,-3.945,-3.944,-3.9439,-3.9497,-3.9491,-3.9683,-3.9709,-3.9551,-3.9553,-3.9554,0,-3.8777,-3.8837,-3.8896,-3.8935,-3.8965,-3.9029,-3.9069,-3.9084,-3.9126,-3.9186,-3.9231,-3.9298,-3.9353,-3.9461,-3.9489,-3.9551,-3.9546,-3.961,-3.9555,-3.9552,-3.9547,-3.9543,-3.9549,-3.9619,-3.9621,-3.9622,-3.9624,0,-3.8918,-3.8927,-3.8986,-3.905,-3.9098,-3.9149,-3.9197,-3.923,-3.925,-3.9298,-3.9368,-3.941,-3.9493,-3.956,-3.9622,-3.9649,-3.964,-3.9641,-3.9657,-3.9656,-3.9647,-3.9652,-3.9467,-3.9636,-3.9635,-3.9634,-3.9633,-3.9633,-3.9016,-3.9069,-3.9119,-3.9185,-3.9223,-3.9269,-3.9321,-3.9347,-3.9406,-3.9476,-3.948,-3.9556,-3.9603,-3.9687,-3.9717,-3.9776,-3.9757,-3.9781,-3.9787,-3.9793,-3.9798,-3.9639,-3.9787,-3.9787,-3.9787,-3.9787,-3.9786,0,-3.9156,-3.9188,-3.9249,-3.9318,-3.937,-3.9358,-3.9411,-3.9455,-3.9522,-3.9568,-3.9622,-3.9702,-3.9767,-3.9801,-3.9865,-3.9905,-3.9902,-3.9921,-3.9918,-3.9924,-3.9811,-3.979,-3.9923,-3.9923,-3.9923,-3.9923,-3.9922,-3.9922,-3.9235,-3.9323,-3.9338,-3.9445,-3.9476,-3.9551,-3.9582,-3.9624,-3.966,-3.9751,-3.9805,-3.9827,-3.9868,-3.9935,-3.9994,-4.0002,-4.0026,-4.0047,-4.0053,-3.9946,-3.9932,-3.9919,-3.9899,-4.0052,-4.0052,-4.0161,-4.0162,-4.0163]}]]